This is the latest recevied weather packets stored in our database for station/object W4DEX-2. If no packets are shown the sender has not sent any weather packets the latest 10 day(s).
| Time | Temp. | Humidity | Pressure | Rain* | Wind** | Luminosity | Snow |
|---|---|---|---|---|---|---|---|
| 1778080803 | 20.56° C | 65% | 1013.8 hPa | 0 mm | 4.47 m/s, 175° | - | - |
| 1778080202 | 20.56° C | 66% | 1013.6 hPa | 0 mm | 5.36 m/s, 164° | - | - |
| 1778079902 | 20° C | 66% | 1013.8 hPa | 0 mm | 4.02 m/s, 181° | - | - |
| 1778079603 | 19.44° C | 68% | 1013.8 hPa | 0 mm | 4.47 m/s, 180° | - | - |
| 1778079002 | 19.44° C | 68% | 1013.8 hPa | 0 mm | 5.36 m/s, 178° | - | - |
| 1778078702 | 18.89° C | 69% | 1013.8 hPa | 0 mm | 4.02 m/s, 180° | - | - |
| 1778078103 | 18.89° C | 69% | 1013.8 hPa | 0 mm | 4.02 m/s, 185° | - | - |
| 1778077802 | 18.89° C | 68% | 1013.8 hPa | 0 mm | 4.92 m/s, 175° | - | - |
| 1778077502 | 18.89° C | 69% | 1013.6 hPa | 0 mm | 4.92 m/s, 178° | - | - |
| 1778077203 | 18.89° C | 68% | 1013.5 hPa | 0 mm | 5.81 m/s, 172° | - | - |
| 1778076902 | 18.89° C | 68% | 1013.7 hPa | 0 mm | 4.92 m/s, 173° | - | - |
| 1778076602 | 18.89° C | 68% | 1013.4 hPa | 0 mm | 4.92 m/s, 178° | - | - |
| 1778075702 | 18.33° C | 68% | 1013.4 hPa | 0 mm | 4.92 m/s, 174° | - | - |
| 1778075402 | 18.33° C | 68% | 1013.3 hPa | 0 mm | 5.81 m/s, 177° | - | - |
| 1778074802 | 18.33° C | 68% | 1013.4 hPa | 0 mm | 4.92 m/s, 179° | - | - |
| 1778074502 | 18.33° C | 68% | 1013.6 hPa | 0 mm | 5.36 m/s, 178° | - | - |
| 1778074203 | 18.33° C | 68% | 1013.8 hPa | 0 mm | 5.36 m/s, 178° | - | - |
| 1778073602 | 18.33° C | 68% | 1013.7 hPa | 0 mm | 4.92 m/s, 178° | - | - |
| 1778073302 | 18.33° C | 68% | 1013.8 hPa | 0 mm | 5.36 m/s, 174° | - | - |
| 1778073003 | 18.33° C | 68% | 1013.7 hPa | 0 mm | 7.15 m/s, 178° | - | - |
| 1778072703 | 17.78° C | 68% | 1013.8 hPa | 0 mm | 5.36 m/s, 181° | - | - |
| 1778072403 | 17.78° C | 68% | 1013.8 hPa | 0 mm | 4.92 m/s, 174° | - | - |
| 1778072102 | 17.78° C | 68% | 1013.8 hPa | 0 mm | 5.81 m/s, 174° | - | - |
| 1778071802 | 17.78° C | 68% | 1014 hPa | 0 mm | 5.81 m/s, 163° | - | - |
| 1778071202 | 17.78° C | 68% | 1014.2 hPa | 0 mm | 5.36 m/s, 172° | - | - |
* Rain latest hour (hover to see other rain measurements)
** Current wind speed in m/s (hover to see current wind gust speed)